Regional Weather Roundup
Issued by NWS Goodland, KS

Home | Current Version | Previous Version | Text Only | Print | Product List | Glossary On
Versions: 1 2 3 4 5 6 7 8 9 10 11 12 13 14 15 16 17 18 19 20 21 22 23 24 25 26 27 28 29 30 31 32 33 34 35 36 37 38 39 40 41 42 43 44 45 46 47 48 49 50
000
ASUS43 KGLD 071359
RWRGLD

GOODLAND FORECAST AREA HOURLY WEATHER ROUNDUP
NATIONAL WEATHER SERVICE GOODLAND KS
800 AM MDT TUE JUL 07 2015

...OFFICIAL OBSERVATIONS...

CITY           SKY/WX    TMP DP  RH WIND       PRES   REMARKS
GOODLAND KS    SUNNY     59  53  80 E7        30.25R HAZE
HILL CITY KS   SUNNY     66  50  56 E12       30.20S HAZE
IMPERIAL NEB   CLOUDY    62  53  72 SE7       30.25R
MCCOOK NEB     SUNNY     61  55  81 E6        30.23R HAZE
AKRON CO       CLOUDY    59  50  72 S15       30.26R HAZE
BURLINGTON CO  MOSUNNY   59  52  77 SE9       30.27R HAZE
LIMON CO       CLOUDY    56  51  84 SE13      30.30R HAZE
$$

...UNOFFICIAL OBSERVATIONS...

CITY           SKY/WX    TMP DP  RH WIND       PRES   REMARKS
COLBY KS       SUNNY     61  57  88 E8        30.25S FOG
GOVE KS          N/A     62  32  32 MISG        N/A
NORTON KS      SUNNY     63  48  59 NE9       30.20S
SHARON SPRINGS   N/A     61  54  76 NE8         N/A
KIT CARSON CO    N/A     60  52  75 MISG        N/A
YUMA CO          N/A     59  52  76 S6          N/A
$$


USA.gov is the U.S. government's official web portal to all federal, state and local government web resources and services.